星链-5765 (STARLINK-5765 )

导读

STARLINK-5765是美国太空探索技术公司(SpaceX)星链计划中的卫星,于北京时间2023年6月23日发射入轨,星链计划旨在搭建全球卫星互联网,为全球提供高速网络服务,该卫星部署于近地轨道,是星链卫星互联网星座组网过程中的组成单元,推进了星座全球覆盖的进程。

Basic Information
目录编号:
57147
目录名称:
STARLINK-5765
国际标识:
2023-090AY
轨道中心:
EARTH
卫星名称:
星链-5765
卫星全名:
星链-5765 (STARLINK-5765 )
卫星状态:
在轨 (已飞行1169 天)
发射日期:
2023-06-23 UTC
国别 :
美国 (US)
星等 :
--
Orbit Information
数据来源 国际轨道数据 AOE轨道数据
星历时间 2026-09-04T00:40:11+0800
12小时前
查看轨道信息
2026-09-02T17:00:00+0800
1天前
查看轨道信息
半长轴 6861.199km 6861.129km
偏心率 0.0001407 0.0001491
轨道倾角 43.004° 43.004°
近地点辐角 259.707° 249.175°
升交点赤经 338.338° 345.790°
平近点角 100.362° 45.686°
近地点 482.096km 481.969km
远地点 484.028km 484.015km
周期 94.267分钟 94.266分钟
每日圈数 15.275759 15.275991
Detailed Information
固有亮度:
5
最大亮度:
2.4
卫星平台:
Starlink v1.5
覆盖范围:
全球
运营商:
太空探索技术公司
运营商所在国:
美国
制造商(研发单位):
太空探索技术公司
制造商所在国:
美国
使用方式:
暂无
Satellite Introduction
星链(Starlink)计划是由太空探索技术公司(SpaceX)提出的一个巨型低轨卫星互联网星座项目,计划在2019年至2024年间在太空搭建由约1.2万颗卫星组成的“星链”网络,其中1584颗将部署在地球上空550千米处的近地轨道,并从2020年开始工作。该卫星仍在工作。
2D Orbit Map
3D Orbit Map
Orbit Altitude Analysis Chart
Orbit Inclination Analysis Chart
Orbit Comprehensive Analysis Chart
View Comprehensive Chart